Home > Weather > Mulhouse > Past weeks

Flag for France Weather for the Past 2 Weeks in Mulhouse, Alsace, France

Now
59 °F

Passing clouds.


Feels Like: 58 °F
Forecast: 34 / 58 °F
Wind: 6 mph from North

Location: Bale-Mulhouse

Current Time: Apr 29, 2016 at 4:46:35 PM

Latest Report: Apr 29, 2016 at 4:00 PM


Visibility: N/A

Pressure: 30.04 "Hg

Humidity: 42%

Dew Point: 36 °F

Location of MulhouseLocation

Historic Weather in Mulhouse — Graph

°F

Mulhouse Temperature Yesterday

Maximum temperature yesterday: 54 °F (at 3:30 PM)
Minimum temperature yesterday: 30 °F (at 5:30 AM)
Average temperature yesterday: 43 °F

High & Low Weather Summary for the Past Weeks

 TemperatureHumidityPressure
High70 °F (Apr 21, 4:00 PM)100% (Apr 16, 12:30 AM)30.33 "Hg (Apr 16, 12:30 AM)
Low30 °F (Apr 28, 5:30 AM)38% (Apr 21, 6:30 PM)29.65 "Hg (Apr 16, 8:00 PM)
Average48 °F76%29.97 "Hg
* Reported Apr 14 3:00 PM — Apr 29 3:30 PM, Mulhouse, Weather by CustomWeather, © 2016

Note: Actual official high and low records may vary slightly from our data, if they occured in-between our weather recording intervals... More about our weather records

Advertising

Mulhouse Weather History for the Previous 24 Hours

Scroll right to see more
 ConditionsComfort  
Time TempWeatherWind HumidityBarometerVisibility
3:30 PM
Fri, Apr 29
59 °FPassing clouds.7 mph42%30.04 "HgN/A
3:00 PM57 °FPassing clouds.5 mph41%30.04 "HgN/A
2:30 PM55 °FScattered clouds.3 mph41%30.04 "HgN/A
2:00 PM57 °FPartly sunny.3 mph44%30.04 "HgN/A
1:30 PM55 °FPartly sunny.3 mph51%30.04 "HgN/A
1:00 PM55 °FPartly sunny.3 mph47%30.07 "HgN/A
12:00 PM55 °FPartly sunny.5 mph47%30.07 "HgN/A
11:30 AM54 °FPartly sunny.5 mph51%30.07 "HgN/A
11:00 AM52 °FScattered clouds.2 mph54%30.07 "HgN/A
10:30 AM52 °FScattered clouds.2 mph54%30.09 "HgN/A
10:00 AM50 °FPassing clouds.2 mph54%30.09 "HgN/A
9:30 AM48 °FPassing clouds.2 mph66%30.09 "HgN/A
9:00 AM46 °FPassing clouds.3 mph71%30.09 "HgN/A
8:30 AM43 °FSunny.3 mph81%30.09 "Hg10 mi
8:00 AM39 °FSunny.3 mph93%30.07 "Hg10 mi
7:30 AM36 °FSunny.1 mph93%30.07 "Hg10 mi
7:00 AM36 °FClear.No wind93%30.07 "Hg10 mi
6:30 AM36 °FClear.No wind93%30.07 "Hg10 mi
6:00 AM36 °FClear.No wind93%30.07 "Hg10 mi
5:30 AM36 °FClear.No wind93%30.07 "Hg10 mi
4:30 AM34 °FClear.1 mph100%30.04 "Hg6 mi
4:00 AM34 °FClear.2 mph93%30.04 "Hg10 mi
3:30 AM34 °FClear.No wind100%30.04 "Hg10 mi
3:00 AM34 °FClear.2 mph93%30.04 "Hg10 mi
2:30 AM36 °FClear.1 mph93%30.04 "Hg10 mi
2:00 AM36 °FClear.2 mph93%30.04 "Hg10 mi
1:00 AM37 °FClear.1 mph93%30.04 "Hg10 mi
12:30 AM37 °FClear.No wind93%30.04 "Hg10 mi
12:00 AM39 °FClear.2 mph93%30.04 "Hg10 mi
11:30 PM
Thu, Apr 28
39 °FClear.2 mph87%30.04 "Hg10 mi
11:00 PM39 °FClear.2 mph87%30.04 "Hg10 mi
10:30 PM37 °FClear.2 mph93%30.04 "Hg10 mi
10:00 PM39 °FClear.5 mph87%30.04 "Hg10 mi
9:30 PM39 °FSunny.5 mph81%30.04 "Hg10 mi
9:00 PM43 °FSunny.2 mph81%30.01 "Hg10 mi
8:30 PM46 °FPassing clouds.3 mph66%30.01 "HgN/A
8:00 PM48 °FScattered clouds.2 mph62%30.01 "HgN/A
7:30 PM50 °FPartly sunny.5 mph54%30.01 "HgN/A
7:00 PM50 °FBroken clouds.7 mph54%30.01 "HgN/A
6:30 PM50 °FBroken clouds.8 mph67%30.01 "HgN/A
6:00 PM48 °FSprinkles. Broken clouds.8 mph66%30.01 "HgN/A
5:30 PM48 °FBroken clouds.10 mph66%29.98 "HgN/A
5:00 PM52 °FBroken clouds.8 mph50%29.98 "HgN/A
4:30 PM52 °FBroken clouds.9 mph47%29.98 "HgN/A
4:00 PM52 °FScattered showers. Broken clouds.8 mph50%29.98 "HgN/A
Weather by CustomWeather, © 2016

See weather overviewHow to use our weather pages